#timestamp,LO_Frequency,Hit,StdDev 
1540105215.1,286046997.2,N
1540105235.8,286046996.9,N
1540105255.7,286046997.2,N
1540105275.5,286046997.0,N
1540105295.4,286046996.5,Y
1540105315.2,286047000.9,P
1540105335.0,286047000.5,N
1540105335.9,286047000.5,N
1540105355.8,286047000.3,N
1540105375.6,286046998.5,N
1540105395.4,286046998.7,N
1540105415.3,286047001.2,N
1540105435.1,286047000.4,N
1540105455.9,286047000.6,N
1540105475.7,286047000.7,N
1540105495.5,286047001.1,N
1540105515.4,286047001.1,N
1540105535.2,286047000.9,N
1540105555.0,286047001.2,N
1540105555.9,286047001.2,N
1540105575.8,286047002.4,N
1540105595.6,286047001.1,N
1540105615.5,286047000.9,N
1540105635.3,286047001.0,N
1540105655.8,286047001.2,N
1540105675.6,286046998.4,N
1540105695.5,286046999.4,N
1540105715.3,286046998.9,N
1540105735.1,286046999.3,N
1540105755.9,286046998.2,N
1540105775.7,286046998.5,N
1540105795.5,286046998.6,N
1540105815.4,286047000.7,N
1540105835.2,286047001.2,N
1540105855.1,286046998.3,N
1540105856.0,286046998.3,N
1540105875.8,286047002.8,N
1540105895.6,286047002.8,N
1540105915.4,286046999.7,N
1540105935.3,286047000.0,N
1540105955.1,286047002.3,N
1540105975.9,286047002.8,N
1540105995.7,286047002.8,N
1540106015.5,286047002.7,N
1540106035.4,286047001.0,N
1540106055.2,286047000.6,N
1540106075.1,286047001.9,N
1540106076.0,286047001.9,N
1540106095.8,286047002.4,N
1540106115.6,286047000.5,N
1540106135.7,286047000.3,N
1540106155.6,286046999.9,N
1540106175.4,286047000.4,N
1540106195.2,286046999.9,N
1540106215.1,286047000.4,N
1540106216.0,286047000.4,N
1540106235.8,286047002.2,N
1540106255.7,286047004.4,N
1540106275.5,286047004.2,N
1540106295.3,286047002.6,N
1540106315.2,286047002.4,N
1540106335.9,286047000.6,N
1540106355.7,286047000.0,N
1540106375.6,286047000.4,N
1540106395.4,286047002.8,N
1540106415.3,286047000.0,N
1540106435.1,286047000.2,N
1540106436.0,286047000.2,N
1540106455.8,286047002.8,N
1540106475.7,286047002.1,N
1540106495.5,286047003.6,N
1540106515.3,286047003.3,N
1540106535.2,286047004.1,N
1540106555.0,286047004.0,N
1540106555.9,286047004.0,N
1540106575.8,286047002.3,N
1540106595.6,286047002.6,N
1540106615.4,286047002.4,N
1540106635.3,286047002.5,N
1540106655.1,286047002.7,N
1540106675.8,286047000.2,N
1540106695.7,286047002.4,N
1540106715.5,286047002.0,N
1540106735.4,286047002.3,N
1540106755.2,286047002.4,N
1540106775.0,286047000.0,N
1540106775.9,286047000.0,N
1540106795.8,286046999.7,N
1540106815.6,286046999.7,N
1540106835.4,286047000.1,N
1540106855.3,286047002.7,N
1540106875.1,286047002.7,N
1540106895.4,286047002.3,N
1540106915.3,286047002.3,N
1540106935.1,286047002.3,N
1540106936.0,286047002.3,N
1540106955.8,286047002.4,N
1540106975.7,286047004.2,Y
1540106995.5,286047000.6,P
1540107015.3,286047001.2,N
1540107035.2,286047000.7,N
1540107055.0,286046998.5,N
1540107055.9,286046998.5,N
1540107075.8,286046999.2,N
1540107095.6,286046998.2,N
1540107115.4,286047001.2,N
1540107135.3,286047000.6,N
1540107155.1,286047000.1,N
1540107175.8,286046999.8,N
1540107195.7,286047000.8,N
1540107215.5,286047000.9,N
1540107235.4,286047001.2,N
1540107255.2,286047000.6,N
1540107275.0,286047000.7,N
1540107275.9,286047000.7,N
1540107295.8,286046998.4,N
1540107315.6,286046998.8,N
1540107335.4,286046999.0,N
1540107355.3,286046998.2,N
1540107375.1,286047000.7,N
1540107395.9,286046996.6,Y
1540107415.7,286047001.2,P
1540107435.5,286046998.1,P
1540107455.4,286047000.2,N
1540107475.2,286046999.8,N
1540107495.1,286046999.7,N
1540107496.0,286046999.7,N
1540107515.8,286047002.4,N
1540107535.6,286047002.3,N
1540107555.5,286047003.9,N
1540107575.3,286047001.6,N
1540107595.1,286047002.8,N
1540107615.9,286047001.4,N
1540107635.7,286047003.9,N
1540107655.6,286047004.2,N
1540107675.4,286047001.8,N
1540107695.2,286047003.8,N
1540107715.1,286047001.5,N
1540107716.0,286047001.5,N
1540107735.8,286047002.6,N
1540107755.6,286047004.3,N
1540107775.5,286047001.8,N
1540107795.3,286047002.0,N
1540107815.2,286047002.1,N
1540107835.9,286047001.9,N
1540107855.7,286047001.9,N
1540107875.6,286047001.3,N
1540107895.4,286047004.4,N
1540107915.2,286047006.0,Y
1540107935.1,286047002.1,P
1540107936.0,286047002.1,P
1540107955.8,286047000.0,N
1540107975.7,286047000.0,N
1540107995.5,286047000.1,N
1540108015.3,286047000.3,N
1540108035.2,286047000.5,N
1540108055.0,286047000.4,N
1540108055.9,286047000.4,N
1540108075.7,286047000.2,N
1540108095.6,286046999.9,N
1540108115.4,286047000.9,N
1540108135.3,286046998.6,N
1540108155.1,286046998.6,N
1540108175.8,286046998.5,N
1540108195.7,286047000.5,N
1540108215.5,286047000.7,N
1540108235.4,286047000.1,N
1540108255.2,286047000.7,N
1540108275.0,286047000.7,N
1540108275.9,286047000.7,N
1540108295.8,286046998.2,N
1540108315.6,286046998.4,N
1540108335.4,286046998.7,N
1540108355.3,286046998.4,N
1540108375.1,286046999.5,N
1540108395.9,286046999.4,N
1540108415.7,286046999.4,N
1540108435.5,286046996.6,Y
1540108455.4,286046996.9,P
1540108475.2,286046999.6,N
1540108495.0,286046998.9,N
1540108495.9,286046998.9,N
1540108515.8,286046998.3,N
1540108535.6,286047001.2,N
1540108555.5,286046998.7,N
1540108575.3,286046999.4,N
1540108595.1,286046996.5,Y
1540108615.9,286046998.8,P
1540108635.7,286046998.4,P
1540108655.5,286046999.4,N
1540108675.4,286046998.2,Y
1540108695.2,286047000.5,P
1540108715.1,286046998.6,N
1540108716.0,286046998.6,N
1540108735.8,286046998.3,N
1540108755.6,286046998.8,N
1540108775.5,286046998.7,N
1540108795.3,286046999.1,N
